STARLINK-1008, 44714

Orbit data source: Space-Track

STARLINK-1008, 44714 is a payload satellite owned by SpaceX/Seattle (US) in LEO that was launched on Mon, 11 Nov 2019 UTC via an FALCON 9 launch vehicle from the Air Force Eastern Test Range (AFETR). Payload-class satellites include a variety of spacecraft equipped with specific instruments for various scientific and technological missions. These include communications satellites like Starlink; space stations such as the ISS; scientific satellites like the Hubble; Earth observation satellites from companies like Planet Labs, Umbra, and HawkEye 360; GPS; miniature CubeSats for education and research; and military/defense satellites.

Loading next visibility...
Identifier
44714, 2019-074B
Orbit
LEO
Country
Flag of USUS
Related business
Manufacturer
SpaceX/Seattle
Mission
Operational Commercial Communications
Bus & Motor
STARLINK, Unknown motor
Mass
260 kg wet, ~248 kg dry
Launch date (UTC)
2019-11-11 (6 years ago)
Launch vehicle
FALCON 9
Launch site
Air Force Eastern Test Range (AFETR)
Object type
Payload
Rocket body
Debris
Shape & HBR
Box + 1 Pan, 10.1 m
Radar Cross Section
13.562 m², Large (>1 m²)

Expand to show TLE details & history
Last TLE update: 1 day ago

TLE from 1 day ago
0 STARLINK-1008
1 44714U 19074B   26071.51342495  .00003379  00000-0  12302-3 0  9993
2 44714  53.1564 165.6214 0001285  80.7619 279.3527 15.31043991349308
Epoch: 2026-03-12T12:19Z
TLE epoch observation values (Epoch: 2026-03-12T12:19:19.915Z)
Latitude
-0.00006°
Longitude
170.62614°
Altitude
473.453 km
Speed
7.631 km/s
True Right ascension
11h 02m 29s
True Declination
0° 00' 00"
Sunlit
Object was in full shadow at epoch
Visualization orbit readout
Latitude
Unknown
Longitude
Unknown
Altitude
Unknown
Speed
Unknown
Apparent Right ascension
Unknown
Apparent Declination
Unknown
Sunlit
N/A
Visualization observer readout
Local Sidereal Time
20:37:46
Azimuth
Unknown
Elevation
Unknown
Doppler factor
Unknown
Orbital elements
Apogee altitude
473.834 km
Perigee altitude
472.073 km
Semi-major axis
6,851.09 km
Eccentricity
0.00013
Inclination
53.1564°
RAAN
165.6214°
Arg. of periapsis
80.7619°
True anomaly
279.33817°
Mean anomaly
279.3527°
Eccentric anomaly
279.34544°
Mean motion
3.8274 °/min
Orbital period
94.06 mins
BSTAR
0.00012302
Loading maneuver chart data...
Computing Atmospheric mass density...

Documentation

Showing up to 5 results
|